Powrót do katalogu

BB 2

AktywnyNaukaPO
NORAD 56170·PAYLOAD·🇺🇸 United States

Wystrzelony Apr 2, 2023 z Vandenberg Space Force Base

Loading…

Następne Przeloty (najbliższe 24 godziny)

TLE

Starzejące sięSource: Space-Track

Epoka: Sep 10, 2026, 17:47 UTC

1 56170U 23050J   26253.74145083  .00000416  00000-0  12482-3 0  9990
2 56170  81.0034 349.8747 0007486  55.8410 304.3486 14.41286348173917

Śledź BB 2 w czasie rzeczywistym z AllMySat

Download on the App Store